Regional Weather Roundup
Issued by NWS

Home | Current Version | Previous Version | Graphics & Text | Print | Product List | Glossary On
Versions: 1 2 3 4 5 6 7 8 9 10 11 12 13 14 15 16 17 18 19 20 21 22 23 24 25 26 27 28 29 30 31 32 33 34 35 36 37 38 39 40 41 42 43 44 45 46 47 48 49 50
000
ASUS45 KBOU 011107
RWRCO

WEATHER ROUNDUP FOR COLORADO
NATIONAL WEATHER SERVICE DENVER/BOULDER CO
500 AM MDT FRI AUG 01 2014

NOTE: "FAIR" INDICATES FEW OR NO CLOUDS BELOW 12000 FEET WITH NO
SIGNIFICANT WEATHER AND/OR OBSTRUCTIONS TO VISIBILITY.

COZ001>005-013-030-031-011200-
...NORTHWEST COLORADO...

CITY           SKY/WX    TMP DP  RH WIND       PRES   REMARKS
CRAIG          MOCLDY    54  48  80 E9        30.24S
HAYDEN         MOCLDY    57  45  62 E6        30.27S
MEEKER         PTCLDY    54  48  80 NE5       30.25S
MOUNT WERNER   NOT AVBL
STEAMBOAT SPGS CLOUDY    52  46  81 CALM      30.30S
WALDEN         CLEAR     37  34  87 SE6       30.40R
$$

COZ006>008-011-011200-
...WEST CENTRAL VALLEYS...

CITY           SKY/WX    TMP DP  RH WIND       PRES   REMARKS
GRAND JUNCTION MOCLDY    65  52  62 SW3       30.15S
MONTROSE       MOCLDY    66  51  58 E6        30.23S
EAGLE          CLOUDY    54  52  94 CALM      30.32R
RIFLE          PTCLDY    63  52  67 CALM      30.21R
DELTA          MOCLDY    67  51  56 E6        30.19S
NUCLA          MOCLDY    63  52  67 SE3       30.26S
$$

COZ017>023-064>068-011200-
...SOUTHWEST COLORADO...

CITY           SKY/WX    TMP DP  RH WIND       PRES   REMARKS
DURANGO        MOCLDY    59  51  75 NE6       30.31S
CORTEZ         PTCLDY    60  52  74 CALM      30.24S
PAGOSA SPRINGS MOCLDY    52  51  97 CALM      30.38S
TELLURIDE      NOT AVBL
WOLF CREEK PAS NOT AVBL
$$

COZ009-010-012-014-032>034-037-058>063-011200-
...CENTRAL COLORADO...

CITY           SKY/WX    TMP DP  RH WIND       PRES   REMARKS
ASPEN          CLOUDY    52  48  86 N5        30.36R
BUENA VISTA    CLOUDY    51  49  93 CALM      30.42S
COPPER MTN     PTCLDY    46  37  71 S15       30.62S
BERTHOUD PASS  FAIR      36  36 100 SE9       30.66F
COTTONWOOD PAS CLOUDY    50  46  87 CALM      30.51S
GUNNISON       MOCLDY    52  45  76 N7        30.40S
KREMMLING      MOCLDY    50  45  81 CALM      30.37S
LEADVILLE      CLOUDY    46  44  93 SE3         N/A
MONARCH PASS   PTCLDY    41  37  87 S3        30.72S
SALIDA         CLOUDY    55  53  93 CALM      30.46F
SUNLIGHT       CLOUDY    50  45  81 CALM      30.55S
WILKERSON PASS PTCLDY    41  39  93 SE5       30.61F
$$

COZ069>075-011200-
...SAN LUIS VALLEY/SANGRE DE CRISTO MOUNTAINS...

CITY           SKY/WX    TMP DP  RH WIND       PRES   REMARKS
ALAMOSA        MOCLDY    51  49  92 CALM      30.37S
LA VETA PASS   MOCLDY    45  43  93 CALM      30.52S
SAGUACHE       MOCLDY    52  50  93 CALM      30.40S
$$

COZ035-036-038>040-011200-
...NORTHERN COLORADO FRONT RANGE...

CITY           SKY/WX    TMP DP  RH WIND       PRES   REMARKS
DENVER INTL AP PTCLDY    59  53  80 SW7       30.26S
DMNS CITY PARK   N/A     57  54  89 S5        30.26S
AURORA         NOT AVBL
FRONT RANGE AP PTCLDY    55  54  94 S5        30.27F
ERIE MUNI ARPT MOCLDY    55  52  91 CALM      30.25S
BOULDER MUN AP MOCLDY    59  46  63 CALM      30.25S
CENTENNIAL     PTCLDY    56  53  90 SE5       30.28F
BROOMFIELD     MOCLDY    57  50  77 W3        30.28S
FORT COLLINS   MOCLDY    55  50  82 CALM      30.26S
LONGMONT       MOCLDY    57  51  80 CALM      30.26S
$$

COZ041-046-047-076>085-087-088-011200-
...PIKES PEAK/PALMER DIVIDE AND SOUTHERN FOOTHILLS...

CITY           SKY/WX    TMP DP  RH WIND       PRES   REMARKS
COLO. SPRINGS  PTCLDY    55  52  89 N5        30.32S
A. F. ACADEMY  PTCLDY    50  49  99 N6        30.33F
ELLICOTT       CLEAR     53  51  93 CALM      30.30F
FALCON         CLEAR     50  49  96 NW3       30.36S
FORT CARSON    CLOUDY    56  51  84 NW6       30.30S
LIMON          CLEAR     50  49  96 CALM      30.27F FOG
MONUMENT HILL  CLEAR     50  46  87 S5        30.35S
TRINIDAD       PTCLDY    58  54  86 W3        30.28F
$$

COZ042>045-048>051-090-091-011200-
...NORTHEAST COLORADO...

CITY           SKY/WX    TMP DP  RH WIND       PRES   REMARKS
GREELEY ARPT   NOT AVBL
AKRON          PTCLDY    58  55  90 W7        30.22S
BURLINGTON     CLEAR     56  51  84 W7        30.20S
WRAY             N/A     59  56  88 SW3       30.16F
STERLING       PTCLDY    59  57  94 CALM      30.18F
HOLYOKE        CLEAR     59  54  82 SW5       30.16S
FORT MORGAN    PTCLDY    54  52  92 W3        30.23S
$$

COZ086-089-092>099-011200-
...SOUTHEAST COLORADO...

CITY           SKY/WX    TMP DP  RH WIND       PRES   REMARKS
PUEBLO         CLOUDY    62  60  93 E3        30.23F
LA JUNTA       PTCLDY    60  57  89 NE5       30.21S
LAMAR          CLEAR     56  54  93 SW3       30.18F
SPRINGFIELD    NOT AVBL
$$



USA.gov is the U.S. government's official web portal to all federal, state and local government web resources and services.